Tracking 22879 objects as of 21-Apr-2021
HD Live streaming from Space Station
objects crossing your sky now

DELTA 1 DEB

Track DELTA 1 DEB now!
10-day predictions


NORAD ID: 7021
Int'l Code: 1973-086M
Perigee: 1,406.7 km
Apogee: 1,702.3 km
Inclination: 101.7 °
Period: 117.0 minutes
Semi major axis: 7925 km
RCS: 0.1794 m2 (medium)
Launch date: November 6, 1973
Source: United States (US)
Launch site: AIR FORCE WESTERN TEST RANGE (AFWTR)

Note: This is SATELLITE DEBRIS
aabbcc
Your satellite tracking list
Your tracking list is empty




NASA's NSSDC Master Catalog

Two Line Element Set (TLE):
1 07021U 73086M   21111.55551076  .00000064  00000-0  83556-3 0  9994
2 07021 101.6664 228.7606 0186507 127.1635 248.5980 12.30451486117514
Source of the keplerian elements: AFSPC